Spokane, WA
on Thursday, December 13, 2012

Thursday
Previous Day Next Day
Daily Summary
 ActualAverageRecord
Temperature
Mean Temperature °F 27°F  
Max Temperature 33°F 32°F 57°F (1886)
Min Temperature 19°F 22°F -14°F (1919)
Degree Days
Heating Degree Days 39 38  
Month to date heating degree days 387 477  
Since 1 July heating degree days 1772 2144  
Cooling Degree Days 0 0  
Month to date cooling degree days 0 0  
Year to date cooling degree days 535 450  
Moisture
Dew Point 27°F   
Average Humidity 96    
Maximum Humidity 100    
Minimum Humidity 92    
Precipitation
Precipitation T in 0.07 in 0.77 in (1977)
Month to date precipitation 1.10 1.04  
Year to date precipitation 19.84 15.30  
Snow
Snow T in 0.40 in 3.70 in (1996)
Month to date snowfall 3.1 5.5  
Since 1 July snowfall 9.0 13.0  
Snow Depth 2.00 in   
Wind
Wind Speed 3 mph   
Max Wind Speed 9 mph   
Max Gust Speed 12 mph   
Visibility 6 miles   
Events Fog , Snow   

Key: T is trace of precipitation, MM is missing value
Source: NWS Daily Summary
Time(PST)TemperatureDew PointHumidity Pressure Visibility Wind DirectionWind SpeedGust SpeedPrecipitationEvents Conditions
12:30 AM 30.2°F 30.2°F 100% 29.94 in 10.0 miles Calm Calm - N/A   Overcast
12:53 AM 30.9°F 28.9°F 92% 29.99 in 7.0 miles SSW 3.5 mph - N/A   Overcast
1:45 AM 30.2°F 28.4°F 93% 29.94 in 10.0 miles SSE 3.5 mph - N/A   Overcast
1:53 AM 30.0°F 28.0°F 92% 30.00 in 10.0 miles Calm Calm - N/A   Mostly Cloudy
2:31 AM 26.6°F 26.6°F 100% 29.94 in 2.5 miles Calm Calm - N/A   Partly Cloudy
2:53 AM 28.0°F 27.0°F 96% 30.01 in 2.5 miles SSE 3.5 mph - N/A   Partly Cloudy
3:38 AM 21.2°F 21.2°F 100% 29.95 in 4.0 miles WSW 5.8 mph - N/A   Overcast
3:53 AM 24.1°F 23.0°F 96% 30.02 in 5.0 miles WSW 5.8 mph - N/A   Overcast
4:53 AM 27.0°F 27.0°F 100% 30.02 in 6.0 miles Calm Calm - N/A   Overcast
5:53 AM 28.0°F 28.0°F 100% 30.03 in 10.0 miles Calm Calm - N/A   Overcast
6:53 AM 30.0°F 28.9°F 96% 30.04 in 7.0 miles South 5.8 mph - N/A   Overcast
7:53 AM 30.0°F 30.0°F 100% 30.04 in 6.0 miles SSW 4.6 mph - N/A   Overcast
8:03 AM 30.2°F 30.2°F 100% 29.98 in 6.0 miles South 5.8 mph - N/A   Overcast
8:53 AM 30.9°F 30.0°F 96% 30.04 in 6.0 miles SSW 9.2 mph - N/A   Overcast
9:37 AM 30.2°F 30.2°F 100% 29.98 in 2.0 miles SSW 3.5 mph - N/A   Overcast
9:53 AM 30.9°F 30.0°F 96% 30.04 in 2.0 miles South 6.9 mph - N/A   Overcast
10:26 AM 30.2°F 30.2°F 100% 29.97 in 3.0 miles South 5.8 mph - N/A   Overcast
10:53 AM 30.9°F 30.0°F 96% 30.03 in 3.0 miles South 6.9 mph - N/A   Overcast
11:53 AM 32.0°F 30.0°F 92% 30.01 in 10.0 miles SSW 4.6 mph - N/A   Overcast
12:53 PM 32.0°F 30.0°F 92% 29.99 in 10.0 miles SSW 4.6 mph - N/A   Overcast
1:41 PM 32.0°F 30.2°F 93% 29.91 in 10.0 miles SE 4.6 mph - N/A   Overcast
1:53 PM 32.0°F 30.9°F 96% 29.96 in 10.0 miles Calm Calm - N/A   Overcast
2:59 PM 33.8°F 30.2°F 87% 29.89 in 7.0 miles South 3.5 mph - N/A   Overcast
4:53 PM 33.8°F 32.0°F 93% 29.87 in 7.0 miles East 3.5 mph - N/A Snow Light Snow
5:53 PM 32.0°F 30.9°F 96% 29.92 in 7.0 miles Calm Calm - 0.00 in   Overcast
6:53 PM 30.9°F 28.9°F 92% 29.90 in 10.0 miles Calm Calm - N/A   Scattered Clouds
7:53 PM 28.9°F 28.0°F 96% 29.90 in 7.0 miles Calm Calm - N/A Fog Patches of Fog
8:53 PM 26.1°F 25.0°F 96% 29.89 in 8.0 miles Calm Calm - N/A Fog Patches of Fog
9:34 PM 24.8°F 24.8°F 100% 29.82 in 0.2 miles Calm Calm - N/A Fog Light Freezing Fog
9:53 PM 21.2°F 19.4°F 93% 29.82 in 0.2 miles Calm Calm - N/A Fog Light Freezing Fog
10:28 PM 23.0°F 21.2°F 93% 29.81 in 0.5 miles Calm Calm - N/A Fog Light Freezing Fog
10:53 PM 21.9°F 21.0°F 96% 29.88 in 0.8 miles Calm Calm - N/A   Scattered Clouds
11:53 PM 19.9°F 18.0°F 92% 29.88 in 1.5 miles Calm Calm - N/A   Scattered Clouds
Moon Phase
Dec. 13 Dec. 20 Dec. 28 Jan. 04 Jan. 11
Sunrise:07:30 AM (PST) Moon Rise:07:42 AM (PST)12/13
Sunset:03:58 PM (PST) Moon Set:04:48 PM (PST)12/13

Copyright © 2014 The Weather Underground, Inc.